Regional Weather Roundup
Issued by NWS Little Rock, AR

Home | Current Version | Previous Version | Graphics & Text | Print | Product List | Glossary On
Versions: 1 2 3 4 5 6 7 8 9 10 11 12 13 14 15 16 17 18 19 20 21 22 23 24 25 26 27 28 29 30 31 32 33 34 35 36 37 38 39 40 41 42 43 44 45 46 47 48 49
000
ASUS44 KLZK 190505
RWRLZK

WEATHER ROUNDUP FOR ARKANSAS
NATIONAL WEATHER SERVICE LITTLE ROCK AR
1200 AM CDT SUN APR 19 2015

NOTE: "FAIR" INDICATES FEW OR NO CLOUDS BELOW 12,000 FEET WITH NO
SIGNIFICANT WEATHER AND/OR OBSTRUCTIONS TO VISIBILITY.

ARZ001-003-010-029-190600-
NORTHWEST ARKANSAS

CITY           SKY/WX    TMP DP  RH WIND       PRES   REMARKS
FAYETTEVILLE   PTCLDY    54  54 100 E3        29.79F
FORT SMITH     CLEAR     63  59  87 CALM      29.78F
HARRISON       FOG       57  57 100 E3        29.80F VSB 1
BENTONVILLE    PTCLDY    61  55  82 SE7       29.79F
ROGERS         PTCLDY    60  57  89 E7        29.80F
SILOAM SPGS    PTCLDY    59  52  77 SE5       29.80F
HIGHFILL       PTCLDY    61  56  83 SE7       29.78F
$$

ARZ004-005-016-190600-
NORTH CENTRAL ARKANSAS

CITY           SKY/WX    TMP DP  RH WIND       PRES   REMARKS
BATESVILLE     MOCLDY    63  61  94 CALM      29.79F
FLIPPIN        MOCLDY    61 N/A N/A CALM      29.78F
MTN HOME       CLOUDY    62  58  86 SE3       29.79F
$$

ARZ040-041-190600-
WEST CENTRAL ARKANSAS

CITY           SKY/WX    TMP DP  RH WIND       PRES   REMARKS
MENA           CLOUDY    59  57  94 CALM      29.80F VSB 3/4
MOUNT IDA      CLOUDY    64  62  93 CALM      29.77F
$$

ARZ009-017-025-026-028-190600-
NORTHEAST ARKANSAS

CITY           SKY/WX    TMP DP  RH WIND       PRES   REMARKS
CORNING          N/A     68  66  94 S6        29.79F
JONESBORO      LGT RAIN  66  64  93 SE3       29.78F
NEWPORT        CLOUDY    66  65  97 CALM      29.80F
WALNUT RIDGE   CLOUDY    66  63  88 SW3       29.79F
BLYTHEVILLE    LGT RAIN  67  67 100 CALM      29.79F
$$

ARZ022-023-033-042-044-190600-
CENTRAL ARKANSAS

CITY           SKY/WX    TMP DP  RH WIND       PRES   REMARKS
LITTLE ROCK    CLOUDY    65  61  87 CALM      29.77F
N LITTLE ROCK  CLOUDY    64  64 100 E3        29.77F
JACKSONVILLE   CLOUDY    63  63  99 N3        29.77F
SEARCY         FOG       61  61 100 CALM      29.79F VSB 1/2
HOT SPRINGS    CLEAR     62  60  93 CALM      29.79F
RUSSELLVILLE   PTCLDY    64  62  93 E3        29.77F
CLINTON        FAIR      61  61 100 CALM      29.80F FOG
$$

ARZ036-190600-
EAST ARKANSAS

CITY           SKY/WX    TMP DP  RH WIND       PRES   REMARKS
WEST MEMPHIS   CLOUDY    65  65 100 S3        29.77F
$$

ARZ050-053-066-070-073-190600-
SOUTHWEST ARKANSAS

CITY           SKY/WX    TMP DP  RH WIND       PRES   REMARKS
ARKADELPHIA    CLOUDY    65  65 100 CALM      29.79F
CAMDEN         CLOUDY    64  63  94 CALM      29.76F
TEXARKANA      PTCLDY    62  62 100 NW5       29.78F FOG
EL DORADO      CLOUDY    65  63  93 CALM      29.76F
DE QUEEN       CLOUDY    63  62  97 CALM      29.76F
$$

ARZ056-057-069-190600-
SOUTHEAST ARKANSAS

CITY           SKY/WX    TMP DP  RH WIND       PRES   REMARKS
PINE BLUFF     CLOUDY    65  64  97 N5        29.76F
STUTTGART      CLOUDY    64  63  94 NE6       29.78F
MONTICELLO     CLOUDY    67  66  97 CALM      29.74F

$$




USA.gov is the U.S. government's official web portal to all federal, state and local government web resources and services.